星链-35529(STARLINK-35529)

导读

STARLINK-35529是美国SpaceX星链星座的一颗卫星,于2025年10月29日发射升空,归属美国所有。星链星座依托大量低轨卫星,为全球提供高速互联网覆盖,该卫星是星链星座扩容过程中的组成部分,将补充星座网络容量,进一步完善全球卫星互联网服务覆盖与服务能力。

Basic Information
目录编号:
66259
目录名称:
STARLINK-35529
国际标识:
2025-245AB
轨道中心:
EARTH
卫星名称:
星链-35529
卫星全名:
星链-35529(STARLINK-35529)
卫星状态:
在轨 (已飞行310 天)
发射日期:
2025-10-29 UTC
国别 :
美国 (US)
星等 :
--
Orbit Information
数据来源 国际轨道数据
星历时间: 2026-09-04T13:08:01+0800
13小时前
查看轨道信息
半长轴: 6848.791km
偏心率: 0.0001076
轨道倾角: 53.158°
近地点辐角 94.116°
升交点赤经 173.651°
平近点角 265.996°
近地点: 469.917km
远地点: 471.391km
周期: 94.011分钟
每日圈数: 15.317291
Detailed Information
固有亮度:
5
最大亮度:
2.5
卫星平台:
Starlink V1.0
覆盖范围:
全球
运营商:
太空探索技术公司
运营商所在国:
美国
制造商(研发单位):
太空探索技术公司
制造商所在国:
美国
使用方式:
暂无
Satellite Introduction
Starlink 计划是 SpaceX 推出的全球卫星互联网项目,通过发射低轨道卫星,为全球尤其是偏远地区提供高速、低延迟的互联网服务。自 2019 年起,Starlink 已部署数千颗卫星,旨在缩小全球数字鸿沟,推动互联网普及。该项目还为军事、航空等行业提供通信支持,带来广泛经济效益。
2D Orbit Map
3D Orbit Map
Orbit Altitude Analysis Chart
Orbit Inclination Analysis Chart
Orbit Comprehensive Analysis Chart
View Comprehensive Chart
Conjunction Data List
Event ID Objects TCA Miss Dist (km) Collision Risk Probability Collision Risk Index (CRI) Action
CDM_260905-161206-047006-625921
PHISAT 2 (60470)
2026-09-05T
16:12:41+0000
1.371 km
极远距离
8.975893E-6 低风险 0.54
CDM_260905-094905-322106-625921
2026-09-05T
09:49:10+0000
1.838 km
极远距离
3.436358E-6 低风险 0.46
CDM_260905-055405-322106-625921
2026-09-05T
05:54:06+0000
1.844 km
极远距离
3.394737E-6 低风险 0.46
CDM_260907-043505-866306-625921
2026-09-07T
04:35:07+0000
1.895 km
极远距离
3.242174E-6 低风险 0.45
CDM_260905-055006-625906-914521
2026-09-05T
05:50:05+0000
2.367 km
极远距离
1.614228E-6 低风险 0.39
CDM_260907-014206-625906-878321
2026-09-07T
01:42:55+0000
2.899 km
极远距离
1.317405E-6 低风险 0.37
CDM_260905-023706-625906-798321
2026-09-05T
02:37:57+0000
2.752 km
极远距离
1.263102E-6 低风险 0.37